Total_Precipitation_Accumulation
0.06 0.11 0.25 0.28 0.28 0.26 0.27 0.24 0.24 0.22 0.21 0.22 0.24 0.26 0.26 0.26 0.24 0.22 0.20 0.22 0.28 0.37 0.45 0.48 0.46 0.41 0.36 0.30 0.18 0.11 0.09 0.12 0.08 0.06 0.06 0.06 0.08 0.10 0.09 0.07 0.07 0.11 0.16
0.06 0.11 0.23 0.28 0.30 0.31 0.30 0.26 0.23 0.19 0.19 0.25 0.29 0.27 0.27 0.28 0.27 0.26 0.27 0.30 0.32 0.37 0.44 0.47 0.46 0.36 0.28 0.20 0.12 0.08 0.07 0.04 0.02 0.01 0.01 0.02 0.04 0.06 0.06 0.06 0.07 0.11 0.15
0.05 0.11 0.21 0.30 0.34 0.33 0.29 0.24 0.19 0.18 0.20 0.26 0.31 0.30 0.29 0.29 0.29 0.28 0.29 0.30 0.33 0.37 0.35 0.34 0.33 0.24 0.17 0.10 0.07 0.05 0.04 0.02 0.01 0.01 0.02 0.04 0.05 0.08 0.08 0.08 0.11 0.14 0.15
0.08 0.12 0.20 0.32 0.42 0.38 0.32 0.25 0.21 0.22 0.24 0.28 0.34 0.34 0.36 0.33 0.30 0.30 0.27 0.26 0.29 0.27 0.25 0.23 0.19 0.13 0.08 0.06 0.05 0.04 0.02 0.01 0.01 0.01 0.03 0.05 0.06 0.11 0.12 0.12 0.13 0.14 0.14
0.13 0.16 0.24 0.35 0.50 0.48 0.37 0.28 0.24 0.25 0.28 0.33 0.37 0.38 0.43 0.39 0.37 0.34 0.28 0.24 0.23 0.19 0.17 0.15 0.11 0.07 0.04 0.04 0.04 0.04 0.02 0.01 0.01 0.01 0.03 0.06 0.09 0.14 0.15 0.14 0.14 0.14 0.14
0.18 0.22 0.31 0.40 0.54 0.59 0.46 0.35 0.28 0.27 0.31 0.37 0.42 0.43 0.47 0.48 0.45 0.38 0.27 0.21 0.18 0.14 0.13 0.13 0.11 0.06 0.03 0.03 0.03 0.03 0.03 0.01 0.01 0.01 0.02 0.05 0.09 0.17 0.18 0.16 0.16 0.17 0.19
0.20 0.32 0.43 0.50 0.59 0.68 0.58 0.46 0.39 0.36 0.37 0.39 0.43 0.46 0.50 0.54 0.54 0.45 0.27 0.19 0.15 0.14 0.12 0.11 0.11 0.07 0.03 0.03 0.04 0.03 0.04 0.02 0.01 0.02 0.03 0.04 0.11 0.21 0.20 0.17 0.17 0.16 0.16
0.28 0.37 0.58 0.72 0.76 0.83 0.77 0.60 0.51 0.47 0.46 0.46 0.46 0.48 0.51 0.55 0.57 0.53 0.33 0.20 0.15 0.14 0.13 0.12 0.11 0.09 0.05 0.05 0.04 0.04 0.04 0.02 0.02 0.02 0.02 0.04 0.09 0.14 0.13 0.11 0.10 0.12 0.13
0.49 0.46 0.58 0.76 0.87 0.93 0.91 0.75 0.68 0.60 0.54 0.54 0.57 0.56 0.50 0.45 0.48 0.48 0.35 0.23 0.19 0.18 0.17 0.17 0.16 0.15 0.10 0.07 0.06 0.05 0.03 0.02 0.01 0.01 0.01 0.03 0.06 0.09 0.08 0.09 0.11 0.13 0.15
0.79 0.70 0.65 0.73 0.82 0.96 1.02 0.79 0.71 0.66 0.60 0.60 0.58 0.51 0.41 0.36 0.37 0.38 0.28 0.22 0.20 0.20 0.18 0.17 0.17 0.17 0.14 0.10 0.08 0.06 0.03 0.02 0.01 0.01 0.01 0.02 0.05 0.07 0.08 0.09 0.12 0.14 0.16
1.03 0.98 0.86 0.81 0.80 0.87 0.99 0.86 0.77 0.72 0.63 0.59 0.56 0.46 0.39 0.38 0.37 0.30 0.21 0.16 0.19 0.20 0.18 0.17 0.17 0.18 0.14 0.10 0.09 0.07 0.06 0.03 0.02 0.02 0.02 0.02 0.04 0.06 0.08 0.10 0.11 0.12 0.13
1.08 1.03 0.99 0.95 0.89 0.91 0.95 0.92 0.88 0.76 0.68 0.59 0.55 0.47 0.44 0.43 0.39 0.31 0.23 0.17 0.19 0.20 0.21 0.20 0.19 0.17 0.12 0.09 0.09 0.09 0.08 0.06 0.05 0.04 0.03 0.03 0.04 0.07 0.11 0.13 0.12 0.11 0.11
1.30 1.14 1.04 1.00 1.06 0.99 0.94 0.93 0.87 0.73 0.68 0.65 0.62 0.54 0.50 0.53 0.51 0.46 0.33 0.24 0.23 0.21 0.21 0.20 0.19 0.15 0.12 0.11 0.11 0.09 0.10 0.10 0.09 0.07 0.05 0.04 0.05 0.10 0.15 0.16 0.13 0.13 0.13
1.56 1.38 1.24 1.17 1.17 1.10 1.02 0.98 0.94 0.78 0.65 0.61 0.61 0.63 0.59 0.53 0.46 0.45 0.38 0.28 0.26 0.24 0.23 0.22 0.19 0.17 0.16 0.14 0.13 0.14 0.13 0.12 0.11 0.10 0.09 0.07 0.07 0.11 0.16 0.18 0.17 0.16 0.17
1.67 1.63 1.47 1.34 1.29 1.22 1.17 1.07 0.97 0.87 0.71 0.60 0.61 0.64 0.62 0.53 0.47 0.44 0.38 0.34 0.30 0.29 0.27 0.26 0.23 0.20 0.20 0.21 0.19 0.17 0.16 0.15 0.14 0.15 0.15 0.12 0.08 0.08 0.12 0.17 0.20 0.23 0.28
1.57 1.68 1.63 1.56 1.43 1.30 1.23 1.14 1.04 0.98 0.83 0.71 0.66 0.65 0.65 0.62 0.56 0.51 0.42 0.37 0.33 0.32 0.31 0.32 0.32 0.27 0.22 0.19 0.17 0.16 0.16 0.14 0.13 0.13 0.13 0.13 0.10 0.08 0.09 0.14 0.21 0.29 0.38
1.57 1.69 1.72 1.74 1.79 1.53 1.35 1.29 1.18 1.06 0.99 0.88 0.75 0.68 0.65 0.64 0.65 0.61 0.54 0.44 0.37 0.40 0.40 0.39 0.40 0.39 0.34 0.26 0.20 0.18 0.16 0.15 0.13 0.11 0.11 0.10 0.10 0.08 0.08 0.14 0.22 0.28 0.35
1.67 1.69 1.72 1.61 1.75 1.80 1.63 1.45 1.30 1.15 1.05 0.99 0.90 0.80 0.74 0.69 0.71 0.72 0.67 0.62 0.55 0.50 0.48 0.46 0.44 0.42 0.37 0.30 0.24 0.22 0.20 0.19 0.17 0.15 0.15 0.12 0.10 0.08 0.07 0.09 0.14 0.21 0.29
1.72 1.69 1.77 1.70 1.68 1.79 1.81 1.66 1.54 1.41 1.24 1.13 1.09 0.94 0.86 0.85 0.85 0.85 0.77 0.76 0.75 0.68 0.57 0.51 0.48 0.45 0.44 0.40 0.36 0.35 0.31 0.25 0.21 0.19 0.17 0.13 0.12 0.12 0.10 0.09 0.11 0.13 0.19
1.77 1.80 1.85 1.93 1.86 1.96 2.15 2.06 1.83 1.68 1.58 1.44 1.28 1.22 1.11 1.01 0.98 0.95 0.92 0.87 0.86 0.81 0.71 0.61 0.53 0.48 0.45 0.48 0.49 0.43 0.38 0.33 0.30 0.27 0.22 0.19 0.17 0.18 0.19 0.20 0.19 0.17 0.16
1.55 1.70 1.71 1.81 1.91 2.00 2.08 2.01 1.81 1.64 1.59 1.54 1.45 1.41 1.30 1.19 1.13 1.06 1.00 0.99 0.97 0.90 0.83 0.78 0.70 0.60 0.55 0.57 0.58 0.49 0.39 0.34 0.30 0.28 0.29 0.28 0.24 0.22 0.23 0.25 0.26 0.23 0.19
1.30 1.40 1.52 1.60 1.71 1.80 1.85 1.85 1.85 1.90 1.76 1.61 1.50 1.41 1.37 1.32 1.24 1.14 1.09 1.07 1.06 1.00 0.91 0.88 0.91 0.84 0.74 0.72 0.74 0.74 0.60 0.46 0.35 0.31 0.31 0.30 0.27 0.26 0.25 0.24 0.24 0.24 0.24
1.06 1.17 1.28 1.41 1.50 1.53 1.72 1.89 1.93 1.96 1.88 1.64 1.42 1.28 1.33 1.43 1.43 1.30 1.20 1.21 1.21 1.19 1.10 1.03 1.02 1.00 0.96 0.90 0.90 1.00 0.87 0.63 0.46 0.36 0.34 0.33 0.31 0.31 0.30 0.29 0.27 0.27 0.26
0.86 1.01 1.13 1.26 1.36 1.39 1.54 1.63 1.61 1.50 1.45 1.37 1.31 1.33 1.37 1.43 1.49 1.46 1.42 1.36 1.32 1.31 1.27 1.32 1.36 1.27 1.19 1.06 0.99 0.94 0.92 0.79 0.75 0.58 0.42 0.39 0.36 0.33 0.32 0.30 0.30 0.29 0.28
0.72 0.78 0.93 1.13 1.20 1.24 1.31 1.38 1.48 1.45 1.39 1.41 1.40 1.33 1.28 1.25 1.34 1.43 1.46 1.45 1.33 1.25 1.21 1.25 1.32 1.37 1.29 1.20 1.14 1.08 1.06 0.94 0.85 0.82 0.61 0.45 0.43 0.40 0.39 0.38 0.39 0.40 0.41
0.65 0.62 0.73 0.88 1.09 1.17 1.20 1.26 1.33 1.32 1.26 1.26 1.31 1.31 1.29 1.22 1.17 1.20 1.28 1.30 1.32 1.29 1.23 1.25 1.33 1.41 1.41 1.36 1.28 1.18 1.13 1.06 0.92 0.93 0.87 0.67 0.59 0.53 0.53 0.54 0.55 0.55 0.55